Погода Красная Гора

Погода Красная Гора : погода сейчас, прогноз погоды и архив. Всё, что Вы хотите узнать о погоде Красная Гора!

Хотите узнать прогноз погоды Красная Гора? Тогда Вам сюда: Погода Красная Гора

Поиск расширенной информации на нашем сайте:

Другие новости

Новости СМИ2

Главная страница сайта

Новости сайта

03.07.2017

Напоминаем, что на нашем специализированном сайте Метеоцентр.Азия вы можете получить высокодетализированные автоматические прогнозы погоды по пунктам России, СНГ и мира в авиационном формате (включающие направление и скорость ветра, видимость, явления погоды, количество и форму облачности, нижнюю и верхнюю границу облачности).

Рекомендуем: Золотая инвестиционная монета буффало.

Погода Красная Гора - сегодня

Время (UTC), дата Ветер
(°,м/с) 
Видим.   Явления Облачность Т
(°С)
Тd
(°С)
f(%) Тe
(°С)
Pmin
(гПа)
dP
(гПа)
Po
(мм)
O2
(г/м3)
Тmin Tmax R s Состояние
почвы
09 20.01.18 210 (ЮЗ) 4000 м  слаб. снег  10/10 300 м 
[Frnb|Ns]
-0.6 -1.2 96 -2  1005.8  1.3  741  299           
12 20.01.18 210 (ЮЗ) 4000 м  дымка{снег}  10/0 средняя 
[As op]
-0.9 -2.4 90 -3  1006.6  0.7  741  300           
15 20.01.18 210 (ЮЗ) 4000 м  дымка{снег}  10/10 600 м 
[Sc]
-2.3 -3.6 91 -4  1008  1.4  742  302         
18 20.01.18 210 (ЮЗ) 4000 м  дымка{снег}  10/0 средняя 
[As op]
-2.8 -4.1 91 -4  1008.6  0.5  743  303    -0.5     
21 20.01.18 200 (Ю) 4000 м  дымка  10/0 средняя 
[As op]
-2.9 -4.2 91 -4  1009  0.3  743  303           
00 21.01.18 200 (Ю) 4000 м  дымка{снег}  10/0 средняя 
[As op]
-3.5 -4.9 90 -5  1008.9  -0.1  743  304           
03 21.01.18 200 (Ю) 4000 м  дымка  10/10 600 м 
[Sc]
-3.9 -5.1 91 -5  1009.2  0.2  743  304  -4    0.7     
06 21.01.18 220 (ЮЗ) 4000 м  дымка  10/0 средняя 
[As op]
-4.1 -5 93 -5  1009.6  0.4  743  305  -4.2    0.3  10  равномерный
сухой снег
100% 
09 21.01.18 240 (ЮЗ) 4000 м  дымка  10/0 средняя 
[As op]
-3.3 -4.4 92 -4  1010.3  0.7  744  304           
12 21.01.18 280 (З) 10 км    10/0 средняя 
[Ac und]
-2.5 -5.9 77 -4  1011.4  1.1  744  303           
15 21.01.18 270 (З) 10 км    10/0 средняя 
[Ac und]
-4.1 -7.1 80 -5  1013.7  2.3  746  306           
18 21.01.18 260 (З) 10 км    3/0 средняя 
[Ac trans]
-6 -9.1 79 -6  1014.8  0.9  747  309    -2.4       
21 21.01.18 240 (ЮЗ) 10 км    10/0 средняя 
[As op]
-5.8 -7.6 87 -7  1016  1.2  748  309           
00 22.01.18 280 (З) 4000 м  дымка  8/8 800 м 
[Sc]
-6.8 -8 91 -8  1017.8  1.7  749  310           
03 22.01.18 300 (СЗ) 4000 м  дымка  3/0 средняя 
[Ac trans]
-8.8 -9.9 92 -10  1018.5  0.5  749  313  -8.9         
06 22.01.18 230 (ЮЗ) 4000 м  дымка  3/0 средняя 
[Ac trans]
-13.6 -14.9 90 -14  1020  1.1  750  319  -13.7      10  равномерный
сухой снег
100% 
09 22.01.18 290 (З) 10 км    3/0 верхняя 
[Ci fib]
-10.8 -12.8 85 -11  1020.8  1.1  751  316           
12 22.01.18 тихо ()   10 км    6/0 средняя, верхняя 
[Ac trans|Ci fib]
-7.3 -10.7 77 -7  1021.4  0.7  752  312           
15 22.01.18 340 (С) 10 км    ясно 
-9.9 -11.6 87 -10  1022.7  1.2  752  316           
18 22.01.18 тихо ()   4000 м  дымка  10/10 600 м 
[Sc]
-12.3 -13.6 90 -12  1023.8  0.8  753  319    -6.5       
21 22.01.18 300 (СЗ) 4000 м  дымка  10/10 600 м 
[Sc]
-12.4 -13.7 90 -12  1024.1  0.3  753  319           
00 23.01.18 тихо ()   4000 м  дымка  10/10 600 м 
[Sc]
-13.3 -14.6 90 -13  1025.6  1.4  754  321           
03 23.01.18 тихо ()   4000 м  дымка  10/10 600 м 
[Sc]
-13 -14.3 90 -13  1026.6  755  321  -13.4         
06 23.01.18 тихо ()   4000 м  дымка  10/0 средняя 
[As op]
-14.2 -15.4 91 -14  1027.7  1.1  756  323  -14.3      10  равномерный
сухой снег
100% 
09 23.01.18 320 (СЗ) 4000 м  дымка{снег}  10/0 средняя 
[As op]
-12.7 -14 90 -13  1028.7  757  321           
Время (UTC), дата Ветер
(°,м/с) 
Видим.   Явления Облачность Т
(°С)
Тd
(°С)
f(%) Тe
(°С)
Pmin
(гПа)
dP
(гПа)
Po
(мм)
O2
(г/м3)
Тmin Tmax R s Состояние
почвы

Для получения пояснительной информации подведите курсор к названию столбца.

ПОГОДА Красная Гора - архив

Всё, что Вы хотите узнать о погоде Красная Гора - удобно и подробно!

Выберите нужную дату (начиная с 1 января 2015* года) и нажмите кнопку "Найти".
Будут отображены архивные сводки погоды по пункту Красная Гора, начиная с указанной даты.


Отображать данные в формате CSV (для использования в таблицах Excel)


Внимание! Наш архив погоды предназначен исключительно для личного некоммерческого использования в познавательных целях. Если Вам необходимы официальные справки о состоянии погоды (для производственных, юридических, коммерческих и т.п. целей), обращайтесь в органы Росгидромета.

*Примечание: данная дата относится к архиву по метеостанциям СССР (Россия, СНГ, Балтия).
Архив по метеостанциям Зарубежной Европы и Азии (кроме Китая) хранится 10 дней, по другим регионам земного шара (Китай, Африка, Америка, Австралия, Океания) - 1 день.

Красная Гора - район местоположения метеостанции


Название, широта, долгота, высота метеостанции:
Красная Гора 53°ш. 31.6°д. 148 м над ур. моря [Российская Федерация]

Дополнительная информация

В oтличие oт бoльшинства пoгoдных сайтoв мы публикуем пoдрoбную метеoинфoрмацию в детальнoм прoфессиoнальнoм фoрмате.

Характеристики температуры и влажнoсти вoздуха измеряются на высoте 2 м в тени вдали oт зданий и деревьев.
Скoрoсть ветра измеряется на высoте 10 м (на урoвне рoста челoвека скoрoсть ветра ниже в 1.5-2 раза). Если метеoстанция нахoдится в гoрoде или в лесу, тo скoрoсть ветра занижена на 2-4 м/с пo сравнению с oткрытым местoм. Скoрoсть ветра над акватoриями крупных рек и oзёр, а также на вершинах хoлмoв на 2-5 м/с выше, чем в oбычных услoвиях.
Атмoсфернoе давление в разных тoчках местнoсти мoжет значительнo oтличаться oт давления на метеoстанции, в зависимoсти oт услoвий рельефа (при пoдъёме на 10 м давление пoнижается примернo на 1 мм рт.ст.).